TimeCDT,TemperatureF,Dew PointF,Humidity,Sea Level PressureIn,VisibilityMPH,Wind Direction,Wind SpeedMPH,Gust SpeedMPH,PrecipitationIn,Events,Conditions,WindDirDegrees,DateUTC
12:53 AM,68.0,64.9,90,29.84,9.0,WSW,4.6,-,N/A,,Clear,250,2011-10-13 05:53:00
1:53 AM,68.0,64.9,90,29.85,10.0,NW,6.9,-,N/A,,Clear,310,2011-10-13 06:53:00
2:53 AM,66.9,62.1,84,29.86,10.0,NNW,6.9,-,N/A,,Clear,330,2011-10-13 07:53:00
3:53 AM,64.9,59.0,81,29.86,10.0,NNW,6.9,-,N/A,,Clear,330,2011-10-13 08:53:00
4:53 AM,64.0,55.9,75,29.87,10.0,NW,5.8,-,N/A,,Clear,320,2011-10-13 09:53:00
5:53 AM,62.1,55.0,78,29.88,10.0,NW,5.8,-,N/A,,Clear,320,2011-10-13 10:53:00
6:53 AM,62.1,53.1,72,29.90,10.0,NW,6.9,-,N/A,,Clear,320,2011-10-13 11:53:00
7:53 AM,61.0,52.0,72,29.91,10.0,NW,8.1,-,N/A,,Clear,310,2011-10-13 12:53:00
8:53 AM,64.4,51.8,64,29.94,10.0,NW,8.1,-,N/A,,Clear,320,2011-10-13 13:53:00
9:53 AM,68.0,51.1,55,29.94,10.0,North,6.9,-,N/A,,Clear,350,2011-10-13 14:53:00
10:53 AM,73.0,48.9,42,29.96,10.0,North,11.5,20.7,N/A,,Clear,360,2011-10-13 15:53:00
11:53 AM,75.0,45.0,34,29.95,10.0,NNW,12.7,23.0,N/A,,Clear,340,2011-10-13 16:53:00
12:53 PM,75.9,45.0,33,29.94,10.0,NW,13.8,-,N/A,,Clear,320,2011-10-13 17:53:00
1:53 PM,78.1,43.0,29,29.91,10.0,North,9.2,18.4,N/A,,Clear,350,2011-10-13 18:53:00
2:53 PM,80.1,42.1,26,29.88,10.0,NW,11.5,18.4,N/A,,Clear,320,2011-10-13 19:53:00
3:53 PM,81.0,43.0,26,29.87,10.0,NNW,11.5,19.6,N/A,,Clear,330,2011-10-13 20:53:00
4:53 PM,81.0,43.0,26,29.86,10.0,North,5.8,-,N/A,,Clear,360,2011-10-13 21:53:00
5:53 PM,79.0,43.0,28,29.86,10.0,NW,9.2,-,N/A,,Clear,320,2011-10-13 22:53:00
6:53 PM,73.4,44.6,36,29.89,10.0,WNW,4.6,-,N/A,,Clear,290,2011-10-13 23:53:00
7:53 PM,71.1,46.0,41,29.89,10.0,WNW,4.6,-,N/A,,Clear,290,2011-10-14 00:53:00
8:53 PM,66.9,52.0,59,29.90,10.0,WNW,4.6,-,N/A,,Clear,300,2011-10-14 01:53:00
9:53 PM,64.9,48.0,54,29.92,10.0,WNW,3.5,-,N/A,,Clear,300,2011-10-14 02:53:00
10:53 PM,63.0,48.9,60,29.93,10.0,NW,3.5,-,N/A,,Clear,310,2011-10-14 03:53:00
11:53 PM,60.1,50.0,69,29.94,10.0,Calm,Calm,-,N/A,,Clear,0,2011-10-14 04:53:00